DIAMANT R/B, 2671

Orbit data source: Space-Track

DIAMANT R/B, 2671 is space debris in LEO originally from a launch on Wed, 08 Feb 1967 UTC launched from the Hamma Guira Space Track Range (HGSTR). Debris objects in space refer to the collection of defunct objects orbiting the Earth. Examples of debris include non-operational satellites, rocket bodies, and fragments generated from explosions, collisions, or faulty payload assembly.

Loading next visibility...
Identifier
2671, 1967-011B
Orbit
LEO
Country
Flag of FRFR
Related business
Manufacturer
Sud
Mission
Spacecraft
Bus & Motor
RUBIS, Unknown motor
Mass
65 kg wet, 65 kg dry
Launch date (UTC)
1967-02-08 (59 years ago)
Launch vehicle
Unknown
Launch site
Hamma Guira Space Track Range (HGSTR)
Object type
Payload
Rocket body
Debris
Shape & HBR
Unknown
Radar Cross Section
Large (>1 m²)

Expand to show TLE details & history
Last TLE update: 4 hours ago

TLE from 4 hours ago
0 DIAMANT R/B
1  2671U 67011B   26034.48958009  .00003022  00000-0  59103-3 0  9997
2  2671  39.9459 111.2903 0332352 206.3350 152.0180 14.34177967 36321
Epoch: 2026-02-03T11:44Z
TLE epoch observation values (Epoch: 2026-02-03T11:44:59.719Z)
Latitude
-0°
Longitude
161.37169°
Altitude
988.913 km
Speed
7.25 km/s
True Right ascension
07h 25m 09s
True Declination
0° 00' 00"
Sunlit
Object was in full shadow at epoch
Visualization orbit readout
Latitude
Unknown
Longitude
Unknown
Altitude
Unknown
Speed
Unknown
Apparent Right ascension
Unknown
Apparent Declination
Unknown
Sunlit
N/A
Visualization observer readout
Local Sidereal Time
18:02:52
Azimuth
Unknown
Elevation
Unknown
Doppler factor
Unknown
Orbital elements
Apogee altitude
1,018.064 km
Perigee altitude
542.25 km
Semi-major axis
7,158.294 km
Eccentricity
0.03324
Inclination
39.9459°
RAAN
111.2903°
Arg. of periapsis
206.335°
True anomaly
153.74133°
Mean anomaly
152.018°
Eccentric anomaly
152.88588°
Mean motion
3.58368 °/min
Orbital period
100.46 mins
BSTAR
0.00059103
Loading maneuver chart data...
Computing Atmospheric mass density...

Documentation

Showing up to 5 results
|